Location: Cucq
(50.4773°N, 1.6202°E)
Time: 17:47:15
(UTC+00:00)

Cosmos 2344 - Pass Details

Date: 07 August 2020
Orbit: 1247 x 2995 km, 63.3° (Epoch: 24 September)

Event Time Altitude Azimuth Distance (km) Brightness Sun altitude
Rises 01:42:13 0° 316° (NW) 4,598 6.8 -19.5°
Reaches altitude 10° 01:44:51 10° 314° (NW) 3,758 6.2 -19.3°
Maximum altitude 01:54:11 66° 235° (SW) 2,072 4.4 -18.6°
Drops below altitude 10° 02:07:09 10° 158° (SSE) 5,100 6.4 -17.5°
Sets 02:11:23 0° 156° (SSE) 6,324 6.9 -17.2°
